Regional Weather Roundup
Issued by NWS Binghamton, NY

Home | Current Version | Previous Version | Text Only | Print | Product List | Glossary On
Versions: 1 2 3 4 5 6 7 8 9 10 11 12 13 14 15 16 17 18 19 20 21 22 23 24 25 26 27 28 29 30 31 32 33 34 35 36 37 38 39 40 41 42 43 44 45 46 47 48 49 50
000
ASUS41 KBGM 020310
RWRBGM
RWRBGM
BINGHAMTON REGIONAL WEATHER ROUNDUP
NATIONAL WEATHER SERVICE BINGHAMTON NY
1100 PM EDT FRI AUG 01 2014

Note: "fair" indicates few or no clouds below 12,000 feet with no
significant weather and/or obstructions to visibility.

* = Station(s) that does not report precipitation, such as rain,
snow, etc, also no thunder or fog.

!NYZ009-015>018-022>025-036-037-044>046-055>057-062-020400
...CENTRAL NEW YORK...

CITY           SKY/WX    TMP DP  RH WIND       PRES   REMARKS
BINGHAMTON     PTCLDY    67  63  87 S7        30.21R
CORTLAND       FAIR      70  63  78 S6        30.19S
DANSVILLE      LGT RAIN  68  63  84 SE9       30.17R
ELMIRA         MOCLDY    66  62  87 E3        30.16R
ITHACA         MOCLDY    69  63  81 SE7       30.18R
HAMILTON       CLEAR     70  61  73 S3        30.19S
MONTICELLO     CLOUDY    63  63 100 CALM      30.25S
NORWICH        MOCLDY    66  61  82 SE3       30.20S
PENN YAN       MOCLDY    65  60  84 SE3       30.17R
ROME           PTCLDY    69  63  81 E7        30.17R
SIDNEY         CLEAR     70  66  88 CALM      30.21R
SYRACUSE       CLOUDY    73  62  68 NW9       30.15R
$$

!PAZ038>040-043-044-047-048-072-020400
...NORTHEAST PENNSYLVANIA...

CITY           SKY/WX    TMP DP  RH WIND       PRES   REMARKS
HAZLETON       CLOUDY    63  61  94 E3        30.25S
SCRANTON       CLOUDY    68  61  78 CALM      30.20S
TOWANDA*       CLEAR     68  63  83 CALM      30.18F
$$
&&
KEY
WCI = WIND CHILL INDEX
VSB = VISIBILITY
HX  = HEAT INDEX
$$


USA.gov is the U.S. government's official web portal to all federal, state and local government web resources and services.